LAPAN-A3

Last updated on Mon Jun 22 2026 00:02:51 GMT+0000 (Coordinated Universal Time)

1 41603U 16040E 26172.49891024 .00002561 00000+0 82247-4 0 9990 2 41603 97.1492 168.5028 0010350 11.1730 348.9740 15.33127454555476
UTC large
Height (km)
Speed (km/s)
/
Latitude / Longitude
Inclination (degrees)
Orbital Period (minutes)
Azimuth
Elevation
Range (km)
Doppler Factor

Next 0 passes for location: London (51.5072 / 0.1276)

No passes found over London.
LAPAN-A3